Lima, OH

4:33 AM EST on November 20, 2017 (GMT -0500)
Lima Allen County

Weather History for KAOH - March, 2013

Change the Weather History Date:

Wednesday, March 27, 2013

  Actual Average (KFDY) Record (KFDY)
Temperature  
Mean Temperature 36 °F -  
Max Temperature 39 °F 49 °F 78 °F (1989)
Min Temperature 32 °F 32 °F 6 °F (1965)
Degree Days  
Heating Degree Days 30    
Moisture  
Dew Point 27 °F    
Average Humidity 74    
Maximum Humidity 82    
Minimum Humidity 65    
Precipitation  
Precipitation 0.00 in - - ()
Sea Level Pressure  
Sea Level Pressure 30.24 in    
Wind  
Wind Speed 13 mph (West)    
Max Wind Speed 17 mph    
Max Gust Speed -    
Visibility 10 miles    
Events      
Averages and records for this station are not official NWS values.
T = Trace of Precipitation, MM = Missing Value Source: NWS Daily Summary

Daily Weather History Graph

Daily Weather History Graph

Search for Another Location

Airport or City:

Trip Planner

Search our weather history database for the weather conditions in past years. The results will help you decide how hot, cold, wet, or windy it might be!

Date:

Astronomy

Mar. 27, 2013 Rise Set
Actual Time 7:27 AM EDT 7:55 PM EDT
Civil Twilight 7:00 AM EDT 8:23 PM EDT
Nautical Twilight 6:27 AM EDT 8:55 PM EDT
Astronomical Twilight 5:54 AM EDT 9:29 PM EDT
Moon 8:39 PM EDT (3/27) 7:17 AM EDT (3/27)
Length of Visible Light 13h 23m
Length of Day
12h 28m
Full, 100% of the Moon is Illuminated
Mar 27
Full
Apr 3
Last Quarter
Apr 10
New
Apr 18
First Quarter
Apr 25
Full

Hourly Weather History & Observations

Time (EDT) Temp. Windchill Dew Point Humidity Pressure Visibility Wind Dir Wind Speed Gust Speed Precip Events Conditions
12:53 AM 34.0 °F 25.5 °F 28.0 °F 79% 30.19 in 10.0 mi West 11.5 mph - N/A   Overcast
1:53 AM 34.0 °F 24.2 °F 27.0 °F 75% 30.19 in 10.0 mi West 15.0 mph - N/A   Overcast
2:53 AM 34.0 °F 25.5 °F 28.0 °F 79% 30.18 in 10.0 mi West 11.5 mph - N/A   Overcast
3:53 AM 33.1 °F 23.4 °F 28.0 °F 82% 30.18 in 10.0 mi WNW 13.8 mph - 0.00 in   Overcast
4:53 AM 33.1 °F 24.4 °F 27.0 °F 78% 30.19 in 10.0 mi WNW 11.5 mph - N/A   Overcast
5:53 AM 32.0 °F 23.6 °F 27.0 °F 82% 30.20 in 10.0 mi WNW 10.4 mph - N/A   Overcast
6:53 AM 32.0 °F 23.6 °F 27.0 °F 82% 30.22 in 10.0 mi West 10.4 mph - N/A   Overcast
7:53 AM 32.0 °F 24.2 °F 27.0 °F 82% 30.23 in 8.0 mi WNW 9.2 mph - N/A   Overcast
8:53 AM 33.1 °F 24.9 °F 27.0 °F 78% 30.24 in 10.0 mi West 10.4 mph - N/A   Overcast
9:53 AM 34.0 °F 25.5 °F 28.0 °F 79% 30.25 in 10.0 mi West 11.5 mph - N/A   Mostly Cloudy
10:53 AM 35.1 °F 26.9 °F 28.0 °F 76% 30.26 in 10.0 mi WNW 11.5 mph - N/A   Clear
11:53 AM 37.0 °F 28.9 °F 27.0 °F 67% 30.27 in 10.0 mi WNW 12.7 mph - N/A   Clear
12:53 PM 37.9 °F 29.6 °F 28.0 °F 68% 30.26 in 10.0 mi West 13.8 mph - N/A   Clear
1:53 PM 39.0 °F 30.3 °F 28.0 °F 65% 30.25 in 10.0 mi West 16.1 mph - N/A   Overcast
2:53 PM 37.9 °F 28.5 °F 28.0 °F 68% 30.25 in 10.0 mi West 17.3 mph - N/A   Overcast
3:53 PM 37.9 °F 28.5 °F 28.0 °F 68% 30.25 in 10.0 mi West 17.3 mph - N/A   Overcast
4:53 PM 37.9 °F 28.5 °F 28.9 °F 70% 30.25 in 10.0 mi West 17.3 mph - N/A   Overcast
5:53 PM 37.9 °F 28.5 °F 27.0 °F 65% 30.25 in 10.0 mi West 17.3 mph - N/A   Overcast
6:53 PM 37.9 °F 29.6 °F 27.0 °F 65% 30.25 in 10.0 mi West 13.8 mph - N/A   Overcast
7:53 PM 37.0 °F 28.5 °F 27.0 °F 67% 30.26 in 10.0 mi West 13.8 mph - N/A   Overcast
8:53 PM 35.1 °F 26.9 °F 27.0 °F 72% 30.27 in 10.0 mi West 11.5 mph - N/A   Mostly Cloudy
9:53 PM 35.1 °F 26.4 °F 26.1 °F 70% 30.27 in 10.0 mi West 12.7 mph - N/A   Overcast
10:53 PM 33.1 °F 24.4 °F 25.0 °F 72% 30.28 in 10.0 mi West 11.5 mph - N/A   Clear
11:53 PM 32.0 °F 23.6 °F 25.0 °F 75% 30.28 in 10.0 mi West 10.4 mph - N/A   Clear